Tracking 32418 objects as of 9-Dec-2025
HD Live streaming from Space Station
objects crossing your sky now

OPS 2222

Track OPS 2222 now!
OPS 2222 is classified as:


NORAD ID: 3334
Int'l Code: 1968-063A
Perigee: 32,248.0 km
Apogee: 39,916.2 km
Inclination: 6.4 °
Period: 1,450.9 minutes
Semi major axis: 42453 km
RCS: Unknown
Launch date: August 6, 1968
Source: United States (US)
Launch site: AIR FORCE EASTERN TEST RANGE (AFETR)
Your satellite tracking list
Your tracking list is empty




NASA's NSSDC Master Catalog

Two Line Element Set (TLE):
1 03334U 68063A   25343.53453848  .00000049  00000-0  00000-0 0  9996
2 03334   6.4037 284.3534 0903147 226.6102 338.6045  0.99251944 24241
Source of the keplerian elements: McCants